[Iaude] MPEC V21: 2023 VJ [a=1.15,e=0.24,i=29.5,H=25.4]
    mpec at marsden.cfa.harvard.edu 
    mpec at marsden.cfa.harvard.edu
       
    Fri Nov  3 23:01:58 EDT 2023
    
    
  
M.P.E.C. 2023-V21                              Issued 2023 November 4, 03:00 UT
     The Minor Planet Electronic Circulars contain information on unusual
         minor planets, routine data on comets and natural satellites,
         and occasional editorial announcements.  They are published
    on behalf of Division F of the International Astronomical Union by the
          Minor Planet Center, Smithsonian Astrophysical Observatory,
                          Cambridge, MA 02138, U.S.A.
			  
             Prepared using the Tamkin Foundation Computer Network
                              MPC at CFA.HARVARD.EDU
            URL https://www.minorplanetcenter.net/    ISSN 1523-6714
                                    2023 VJ                                     
Observations:
     K23V00J  C2023 10 30.45942303 31 06.583-20 03 20.04               VEV021F51
     K23V00J  C2023 10 30.48439203 30 41.390-19 56 19.72               VEV021F51
     K23V00J  C2023 10 30.49713103 30 28.468-19 52 42.46         20.39GVEV021F51
     K23V00J  C2023 10 31.53633303 11 19.993-13 51 12.62         19.22GVEV021F52
     K23V00J  C2023 10 31.54783803 11 04.232-13 46 18.43         19.99GVEV021F52
     K23V00J  C2023 10 31.55935003 10 48.488-13 41 22.77         18.89GVEV021F52
     K23V00J* C2023 11 02.29114302 20 15.509+03 55 17.75         17.9 GVEV021U68
     K23V00J  C2023 11 02.29448402 20 07.325+03 58 03.34         17.9 GVEV021U68
     K23V00J  C2023 11 02.30716602 19 36.110+04 08 34.49         18.6 GVEV021U74
     K23V00J  C2023 11 02.31108602 19 26.457+04 11 49.83         18.6 GVEV021U74
     K23V00J  C2023 11 02.31361502 19 20.251+04 13 55.38         18.0 GVEV021U68
     K23V00J  C2023 11 02.31695702 19 11.968+04 16 42.18         18.0 GVEV021U68
     K23V00J hC2023 11 02.98676001 49 19.481+14 27 03.53         17.5 GVEV021J95
     K23V00J hC2023 11 02.98694401 49 18.948+14 27 14.80         17.5 GVEV021J95
     K23V00J hC2023 11 02.98712701 49 18.358+14 27 26.14         17.8 GVEV021J95
     K23V00J KC2023 11 03.09864901 43 49.87 +16 18 39.5          18.1 GVEV021H21
     K23V00J KC2023 11 03.09971201 43 46.44 +16 19 43.5          18.0 GVEV021H21
     K23V00J KC2023 11 03.10077501 43 43.03 +16 20 47.5          17.9 GVEV021H21
     K23V00J KC2023 11 03.10183901 43 39.59 +16 21 51.4          17.9 GVEV021H21
     K23V00J KC2023 11 03.10290201 43 36.17 +16 22 55.5          17.8 GVEV021H21
     K23V00J KC2023 11 03.10396501 43 32.74 +16 23 59.4          17.8 GVEV021H21
     K23V00J KC2023 11 03.11409901 43 05.29 +16 34 17.4          18.2 GXEV021858
     K23V00J KC2023 11 03.12092001 42 43.34 +16 41 08.7          18.3 GXEV021858
     K23V00J mC2023 11 03.12132801 42 43.538+16 41 43.01         18.49GVEV021I52
     K23V00J mC2023 11 03.12142901 42 43.232+16 41 48.52         18.27GVEV021I52
     K23V00J mC2023 11 03.12152901 42 42.872+16 41 54.56         18.09GVEV021I52
     K23V00J mC2023 11 03.12162901 42 42.574+16 42 00.83         18.21GVEV021I52
     K23V00J KC2023 11 03.12803401 42 20.27 +16 48 19.1          18.0 GXEV021858
     K23V00J  C2023 11 03.28443401 33 53.273+19 27 43.03               VEV021F52
     K23V00J  C2023 11 03.29771201 33 07.372+19 41 17.66         17.63GVEV021F52
     K23V00J  C2023 11 03.29809101 33 06.039+19 41 41.27               VEV021F52
     K23V00J 1C2023 11 03.29839201 32 47.623+19 41 03.52         18.42GVEV021703
     K23V00J 1C2023 11 03.30370501 32 29.350+19 46 22.84         17.91GVEV021703
     K23V00J  C2023 11 03.31147801 32 19.442+19 55 23.00         17.69GVEV021F52
     K23V00J KC2023 11 03.52930201 19 35.80 +23 36 29.2          17.9 GVEV021900
     K23V00J KC2023 11 03.53340701 19 20.39 +23 40 41.9          18.3 GVEV021900
     K23V00J KC2023 11 03.53751201 19 05.02 +23 44 53.3          17.7 GVEV021900
     K23V00J KC2023 11 03.75035001 06 02.515+27 18 13.25         18.2 GVEV021J95
     K23V00J KC2023 11 03.75161601 05 57.593+27 19 30.47         18.8 GVEV021J95
     K23V00J KC2023 11 03.75288301 05 52.627+27 20 47.65         18.7 GVEV021J95
     K23V00J KC2023 11 03.75414101 05 47.693+27 22 03.83         18.3 GVEV021J95
     K23V00J KB2023 11 03.75757401 05 33.079+27 25 50.30         18.8 GXEV021B72
     K23V00J KB2023 11 03.76304301 05 11.600+27 31 22.89         18.7 GXEV021B72
     K23V00J KB2023 11 03.76846401 04 50.261+27 36 51.51         18.1 GXEV021B72
     K23V00J KC2023 11 03.79243101 03 16.709+28 00 47.59         17.9 GVEV021Z80
     K23V00J KB2023 11 03.79898 01 02 48.29 +28 07 26.7          17.3 GVEV021L65
     K23V00J KC2023 11 03.80621601 02 21.794+28 14 40.88         19.0 GVEV021Z80
     K23V00J KB2023 11 03.80715 01 02 15.64 +28 15 38.7          17.6 GVEV021L65
     K23V00J KB2023 11 03.81964 01 01 25.43 +28 28 10.3          18.6 GVEV021L65
     K23V00J KC2023 11 03.86710 00 58 08.45 +29 16 04.4          17.9 VqEV021L04
     K23V00J KC2023 11 03.86904 00 58 00.50 +29 17 59.2          18.1 VqEV021L04
     K23V00J KC2023 11 03.87065 00 57 53.86 +29 19 34.8          18.2 VqEV021L04
     K23V00J KC2023 11 03.87262 00 57 45.79 +29 21 31.1          18.8 VqEV021L04
     K23V00J 1C2023 11 03.89074 00 56 25.99 +29 39 21.3          18.8 GVEV021C40
     K23V00J 1C2023 11 03.89516 00 56 07.78 +29 43 38.6          18.6 GVEV021C40
     K23V00J 1C2023 11 03.89958 00 55 49.53 +29 47 56.9          18.8 GVEV021C40
     K23V00J 1C2023 11 03.92799 00 53 51.86 +30 15 35.5          18.8 GVEV021C40
     K23V00J hC2023 11 03.93040700 53 49.16 +30 18 21.3          18.5 GVEV021L01
     K23V00J 1C2023 11 03.93093 00 53 39.63 +30 18 26.3          18.4 GVEV021C40
     K23V00J 1C2023 11 03.93388 00 53 27.43 +30 21 17.0          18.7 GVEV021C40
     K23V00J hC2023 11 03.93414300 53 33.58 +30 21 59.3          18.6 GVEV021L01
     K23V00J KC2023 11 04.06385100 44 26.87 +32 25 44.5                VEV021204
     K23V00J KC2023 11 04.06634900 44 16.22 +32 28 04.5          18.3 GVEV021204
     K23V00J KC2023 11 04.06922800 44 03.93 +32 30 45.9                VEV021204
Observer details:
204 Schiaparelli Observatory.  Observers L. Buzzi, G. Galli.  0.84-m f/3.5
    reflector + CCD.
703 Catalina Sky Survey.  Observer J. K. Hogan.  Measurers E. C. Beshore, D.
    Fay, J. B. Fazekas, D. C. Fuls, A. R. Gibbs, A. D. Grauer, H. Groeller, J.
    K. Hogan, R. A. Kowalski, S. M. Larson, G. J. Leonard, D. Rankin, R. L.
    Seaman, F. C. Shelly, K. W. Wierzchos.  0.68-m Schmidt + 10K CCD.
858 Tebbutt Observatory, Edgewood.  Observer F. B. Zoltowski.  0.16-m f/7
    Refractor + CCD.
900 Moriyama.  Observer Y. Ikari.  0.26-m f/7.0 reflector + CCD.
B72 Soerth.  Observer B. Koch.  0.36-m f/7.6 reflector + CMO.
C40 Kuban State University Astrophysical Observatory.  Observers A. Ivanov, A.
    Barcov, V. Ivanov, V. Lysenko, N. Yakovenko, N. Ivanova, N. Gorbunov, G.
    Kurbatov, P. Shchukin, V. Roshchupko.  Measurer A. Ivanov.  0.51-m f/8
    reflector + CCD.
F51 Pan-STARRS 1, Haleakala.  Observers J. Bulger, T. Lowe, P. Minguez, A.
    Schultz, I. Smith.  Measurers K. Chambers, T. de Boer, J. Fairlamb, H.
    Gao, M. Huber, C.-C. Lin, E. Magnier, Y. Ramanjooloo, R. Wainscoat, R.
    Weryk.  1.8-m Ritchey-Chretien + CCD.
F52 Pan-STARRS 2, Haleakala.  Observers J. Bulger, T. Lowe, P. Minguez, A.
    Schultz, I. Smith.  Measurers K. Chambers, T. de Boer, J. Fairlamb, H.
    Gao, M. Huber, C.-C. Lin, E. Magnier, Y. Ramanjooloo, R. Wainscoat, R.
    Weryk.  1.8-m Ritchey-Chretien + CCD.
H21 Astronomical Research Observatory, Westfield.  Observer R. Holmes.
    Measurers T. Linder, R. Holmes, L. Horn.  0.76-m f/3.0 astrograph + CCD.
I52 Steward Observatory, Mt. Lemmon Station.  Observer D. Rankin.  Measurers
    E. C. Beshore, D. Fay, J. B. Fazekas, D. C. Fuls, A. R. Gibbs, A. D.
    Grauer, H. Groeller, J. K. Hogan, R. A. Kowalski, S. M. Larson, G. J.
    Leonard, D. Rankin, R. L. Seaman, F. C. Shelly, K. W. Wierzchos.  1.0-m
    prime focus + CCD.
J95 Great Shefford.  Observer P. Birtwhistle.  0.41-m f/6.3 Schmidt-Cassegrain
    + CCD.
L01 Visnjan Observatory, Tican.  Observers K. Korlevic, L. Poropat.  Measurer
    K. Korlevic.  1.0-m f/2.9 reflector + CCD.
L04 ROASTERR-1 Observatory, Cluj-Napoca.  Observer L. Hudin.  0.3-m f/5
    reflector + CCD.
L65 Bredenkamp Observatory, Bremen.  Observer H. Duin.  0.23-m f/6.3 reflector
    + CMO.
U68 JPL SynTrack Robotic Telescope, Auberry.  Observers N. Saini, C. Zhai, R.
    Trahan, M. Zhan, M. Shao.  0.28-m Reflector + CCD.
U74 JPL SynTrack Robotic Telescope 2, Auberry.  Observers N. Saini, C. Zhai,
    R. Trahan, M. Zhan, M. Shao.  0.36-m Reflector + CCD.
Z80 Northolt Branch Observatory.  Observer G. Wells.  Measurers G. Wells, D.
    Bamberger.  0.25-m f/8.0 Ritchey-Chretien + CCD.
Orbital elements:
2023 VJ                                                  Earth MOID = 0.0236 AU
Epoch 2023 Sept. 13.0 TT = JDT 2460200.5                Veres                   
M 270.81306              (2000.0)            P               Q                  
n   0.79644223     Peri.   73.21218     -0.30873191     -0.89803892             
a   1.1526564      Node    39.59267     +0.57101985     -0.43849623             
e   0.2369967      Incl.   29.45372     +0.76067138     -0.03531515             
P   1.24           H   25.48          G   0.15           U   7                  
Residuals in seconds of arc
231030 F51  0.3-  0.4+    231103 858  0.1+  0.1-    231103 Z80  0.4+  0.3-
231030 F51  0.1+  0.6-    231103 I52  0.1+  0.2+    231103 L65  0.2+  0.2-
231030 F51  0.3+  0.3-    231103 I52  0.4+  0.4-    231103 Z80  0.6+  0.4+
231031 F52  0.1-  0.2+    231103 I52  0.1-  0.4-    231103 L65  0.6+  0.5-
231031 F52  0.3-  0.2+    231103 I52  0.2+  0.2-    231103 L65  0.1-  0.0
231031 F52  0.1+  0.1-    231103 858  0.3-  0.4+    231103 L04  0.3-  0.2+
231102 U68  0.0   0.1+    231103 F52  0.3-  0.2+    231103 L04  0.0   0.1+
mailing list